Fort Campbell, TN

1:19 PM CDT on August 27, 2016 (GMT -0500)
Outlaw

Weather History for KCKV - February, 2012

Change the Weather History Date:

Saturday, February 25, 2012

  Actual Average Record
Temperature  
Mean Temperature 38 °F 43 °F  
Max Temperature 46 °F 53 °F 78 °F (1951)
Min Temperature 30 °F 32 °F 5 °F (1967)
Degree Days  
Heating Degree Days 27 22  
Month to date heating degree days 648  
Since 1 July heating degree days 3120  
Cooling Degree Days 0 0  
Month to date cooling degree days 0  
Year to date cooling degree days 1  
Moisture  
Dew Point 21 °F    
Average Humidity 52    
Maximum Humidity 69    
Minimum Humidity 34    
Precipitation  
Precipitation 0.00 in 0.14 in 0.84 in (1993)
Month to date precipitation 3.77  
Year to date precipitation 7.08  
Sea Level Pressure  
Sea Level Pressure 30.28 in    
Wind  
Wind Speed 8 mph (WNW)    
Max Wind Speed 21 mph    
Max Gust Speed 26 mph    
Visibility 10 miles    
Events      
T = Trace of Precipitation, MM = Missing Value Source: NWS Daily Summary

Daily Weather History Graph

Daily Weather History Graph

Search for Another Location

Airport or City:

Trip Planner

Search our weather history database for the weather conditions in past years. The results will help you decide how hot, cold, wet, or windy it might be!

Date:

Astronomy

Feb. 25, 2012 Rise Set
Actual Time 6:26 AM CST 5:39 PM CST
Civil Twilight 6:00 AM CST 6:05 PM CST
Nautical Twilight 5:30 AM CST 6:35 PM CST
Astronomical Twilight 5:00 AM CST 7:05 PM CST
Moon 7:57 AM CST (2/25) 9:31 PM CST (2/25)
Length of Visible Light 12h 05m
Length of Day
11h 13m
Waxing Crescent, 14% of the Moon is Illuminated
Feb 25
Waxing Crescent
Feb 29
First Quarter
Mar 8
Full
Mar 14
Last Quarter
Mar 22
New

Hourly Weather History & Observations

Time (CST) Temp. Windchill Dew Point Humidity Pressure Visibility Wind Dir Wind Speed Gust Speed Precip Events Conditions
12:52 AM 34.0 °F 28.8 °F 24.1 °F 67% 30.18 in 10.0 mi West 5.8 mph - N/A   Clear
1:52 AM 34.0 °F 28.8 °F 21.9 °F 61% 30.18 in 10.0 mi WSW 5.8 mph - N/A   Clear
2:52 AM 33.1 °F 27.7 °F 23.0 °F 66% 30.18 in 10.0 mi SW 5.8 mph - N/A   Clear
4:52 AM 32.0 °F 27.5 °F 23.0 °F 69% 30.19 in 10.0 mi SW 4.6 mph - N/A   Clear
5:52 AM 30.9 °F 25.2 °F 21.9 °F 69% 30.19 in 10.0 mi SW 5.8 mph - N/A   Clear
6:52 AM 32.0 °F 24.8 °F 23.0 °F 69% 30.22 in 10.0 mi WSW 8.1 mph - N/A   Clear
7:52 AM 37.0 °F 29.3 °F 24.1 °F 59% 30.25 in 10.0 mi West 11.5 mph - N/A   Clear
8:52 AM 39.0 °F 29.9 °F 25.0 °F 57% 30.27 in 10.0 mi West 17.3 mph 20.7 mph N/A   Clear
9:52 AM 43.0 °F 34.5 °F 19.9 °F 40% 30.28 in 10.0 mi WNW 19.6 mph 26.5 mph N/A   Clear
10:52 AM 45.0 °F 36.9 °F 19.9 °F 37% 30.30 in 10.0 mi NW 20.7 mph 25.3 mph N/A   Clear
11:52 AM 46.0 °F 38.8 °F 19.0 °F 34% 30.31 in 10.0 mi NW 18.4 mph 24.2 mph N/A   Clear
12:52 PM 45.0 °F 38.9 °F 21.9 °F 40% 30.30 in 10.0 mi North 12.7 mph 21.9 mph N/A   Clear
1:52 PM 46.0 °F 39.6 °F 23.0 °F 40% 30.30 in 10.0 mi NNW 15.0 mph 20.7 mph N/A   Clear
2:52 PM 46.0 °F 41.4 °F 19.9 °F 35% 30.31 in 10.0 mi NNW 9.2 mph - N/A   Clear
3:52 PM 46.0 °F 41.0 °F 21.0 °F 37% 30.31 in 10.0 mi NNW 10.4 mph - N/A   Clear
4:52 PM 44.1 °F 39.0 °F 19.9 °F 38% 30.31 in 10.0 mi North 9.2 mph - N/A   Clear
5:52 PM 37.9 °F 32.7 °F 21.0 °F 51% 30.33 in 10.0 mi North 6.9 mph - N/A   Clear
6:52 PM 36.0 °F 33.3 °F 19.0 °F 50% 30.33 in 10.0 mi North 3.5 mph - N/A   Clear
7:52 PM 36.0 °F - 18.0 °F 48% 30.35 in 10.0 mi Calm Calm - N/A   Clear
8:52 PM 33.1 °F - 19.0 °F 56% 30.36 in 10.0 mi Calm Calm - N/A   Clear
9:52 PM 33.1 °F 30.0 °F 19.0 °F 56% 30.35 in 10.0 mi East 3.5 mph - N/A   Clear
10:52 PM 32.0 °F 28.7 °F 19.0 °F 59% 30.36 in 10.0 mi ESE 3.5 mph - N/A   Clear